Flag for Greenland Weather past 2 weeks in Nuuk, Greenland

Now
32 °F

Scattered showers. Broken clouds.


Feels Like: 22 °F
Forecast: 29 / 33 °F
Wind: 14 mph from Northwest

Location: Godthaab / Nuuk

Current Time: May 29, 2015 at 5:38:47 PM

Latest Report: May 29, 2015 at 4:50 PM


Visibility: N/A

Pressure: 29.47 "Hg

Humidity: 75%

Dew point: 25 °F

Location of NuukLocation

Historic Weather in Nuuk — Graph

°F

Nuuk temperature yesterday

Maximum temperature yesterday: 34 °F (at 11:50 AM)
Minimum temperature yesterday: 27 °F (at 4:50 AM)
Average temperature yesterday: 31 °F

Past Weeks' High & Low Weather Summary

 TemperatureHumidityPressure
High50 °F (May 18, 12:50 AM)100% (May 14, 5:50 PM)30.09 "Hg (May 14, 5:50 PM)
Low23 °F (May 19, 4:50 AM)37% (May 17, 4:50 PM)29.33 "Hg (May 29, 12:50 AM)
Average31 °F79%29.71 "Hg
* Reported May 14 3:50 PM — May 29 3:50 PM, Nuuk, Weather by CustomWeather, © 2015

Note: Actual official high and low records may vary slightly from our data, if they occured in-between our weather recording intervals... More about our weather records

Advertising

Nuuk weather history for previous 24 hours

 ConditionsComfort  
Time TempWeatherWind HumidityBarometerVisibility
3:50 PM
Fri, May 29
30 °FSnow flurries. Broken clouds.13 mph80%29.47 "HgN/A
1:50 PM30 °FSnow flurries. Broken clouds.9 mph93%29.45 "Hg1 mi
12:50 PM30 °FScattered showers. Broken clouds.10 mph80%29.45 "HgN/A
11:50 AM30 °FScattered showers. Broken clouds.10 mph80%29.45 "HgN/A
10:50 AM28 °FSnow flurries. Broken clouds.13 mph86%29.45 "HgN/A
9:50 AM28 °FSnow flurries. Broken clouds.14 mph86%29.42 "HgN/A
8:50 AM28 °FScattered showers. Broken clouds.14 mph86%29.39 "HgN/A
7:50 AM28 °FMostly cloudy.16 mph86%29.39 "HgN/A
6:50 AM28 °FMostly cloudy.14 mph86%29.36 "HgN/A
5:50 AM28 °FOvercast.12 mph86%29.36 "HgN/A
4:50 AM28 °FOvercast.8 mph86%29.33 "HgN/A
3:50 AM28 °FPassing clouds.8 mph86%29.33 "HgN/A
2:50 AM28 °FOvercast.7 mph86%29.33 "HgN/A
1:50 AM30 °FMostly cloudy.6 mph69%29.33 "HgN/A
12:50 AM30 °FPassing clouds.9 mph64%29.33 "HgN/A
11:50 PM
Thu, May 28
30 °FOvercast.12 mph69%29.36 "HgN/A
10:50 PM30 °FPartly sunny.15 mph69%29.36 "HgN/A
9:50 PM32 °FPartly sunny.14 mph60%29.39 "HgN/A
8:50 PM32 °FPartly sunny.14 mph60%29.42 "HgN/A
7:50 PM32 °FScattered clouds.12 mph60%29.45 "HgN/A
6:50 PM32 °FPartly sunny.12 mph55%29.50 "HgN/A
5:50 PM34 °FPassing clouds.10 mph60%29.53 "HgN/A
Weather by CustomWeather, © 2015

See weather overviewHow to use our weather pages